Date String (YYYY-MM-DD hh:mm:ss) UTC,Instrument flags,absolute air pressure of the measurement (hPa),sample flow rate (lpm),inlet stack bypass flow (lpm),air temperature of the measurement (°C),ambient temperature measured by the external sensor (°C),aerosol sample conditioner tube jacket temperature (°C),OPC LED temperature (°C),internal box temperature (°C),relative humidity of the measurement (%),span deviation,mass concentration of particles derived from Lorenz-Mie calculation of OPC scattering (μg/m³),mass concentration of particles derived from Lorenz-Mie calculation of OPC scattering (μg/m³),mass concentration of particles derived from Lorenz-Mie calculation of OPC scattering (μg/m³)
DateTimeUTC,F1_M11,P_M11,Q1_M11,Q2_M11,T1_M11,T2_M11,T3_M11,T4_M11,T5_M11,U1_M11,ZSPAN_M11,X0_M11,X2_M11,X1_M11
2023-09-06 05:00:00,SystemResetWarning,0835.7,5.00,000.00,028.3,027.0,000.0,036.7,029.9,25.8,0001.6,0034.97,0023.71,0022.41
2023-09-06 05:01:00,SystemResetWarning,0835.6,5.00,000.00,028.3,027.2,000.0,036.7,030.0,25.7,0001.6,0035.05,0023.67,0022.41
2023-09-06 05:02:00,SystemResetWarning,0835.7,5.00,000.00,028.3,027.2,000.0,036.7,030.0,25.6,0001.6,0035.37,0023.71,0022.46
2023-09-06 05:03:00,SystemResetWarning,0835.6,5.00,000.00,028.4,027.3,000.0,036.7,030.1,25.5,0001.5,0035.32,0023.75,0022.50
2023-09-06 05:04:00,SystemResetWarning,0835.7,5.00,000.00,028.4,027.4,000.0,036.7,030.1,25.5,0001.4,0035.54,0023.75,0022.53
2023-09-06 05:05:00,SystemResetWarning,0835.6,5.00,000.00,028.4,027.5,000.0,036.7,030.2,25.4,0001.5,0034.52,0023.86,0022.60
2023-09-06 05:06:00,SystemResetWarning,0835.6,5.00,000.00,028.5,027.5,000.0,036.8,030.2,25.3,0001.5,0034.12,0023.94,0022.70
2023-09-06 05:07:00,SystemResetWarning,0835.6,4.99,000.00,028.5,027.0,000.0,036.8,030.1,25.3,0001.5,0034.19,0024.03,0022.80
2023-09-06 05:08:00,SystemResetWarning,0835.6,5.00,000.00,028.4,025.3,000.0,036.7,029.6,25.4,0001.6,0034.47,0024.12,0022.88
2023-09-06 05:09:00,SystemResetWarning,0835.6,5.00,000.00,028.3,024.5,000.0,036.6,029.5,25.6,0001.8,0035.36,0024.20,0022.97
2023-09-06 05:10:00,SystemResetWarning,0835.6,5.01,000.00,028.2,024.7,000.0,036.6,029.4,25.8,0001.9,0035.30,0024.28,0023.06
2023-09-06 05:11:00,SystemResetWarning,0835.6,5.01,000.00,028.1,025.0,000.0,036.6,029.4,25.8,0002.1,0035.45,0024.36,0023.14
2023-09-06 05:12:00,SystemResetWarning,0835.6,5.00,000.00,028.1,025.3,000.0,036.6,029.5,25.9,0002.1,0036.32,0024.48,0023.25
2023-09-06 05:13:00,SystemResetWarning,0835.6,5.00,000.00,028.1,025.7,000.0,036.6,029.6,25.9,0002.0,0036.97,0024.61,0023.33
2023-09-06 05:14:00,SystemResetWarning,0835.6,5.00,000.00,028.1,026.0,000.0,036.6,029.6,25.8,0002.2,0036.82,0024.68,0023.41
2023-09-06 05:15:00,SystemResetWarning,0835.6,5.00,000.00,028.1,026.3,000.0,036.6,029.7,25.8,0002.2,0037.11,0024.75,0023.47
2023-09-06 05:16:00,SystemResetWarning,0835.6,5.00,000.00,028.2,026.5,000.0,036.6,029.7,25.7,0002.2,0037.19,0024.80,0023.51
2023-09-06 05:17:00,SystemResetWarning,0835.6,5.00,000.00,028.2,026.7,000.0,036.6,029.8,25.7,0002.1,0037.60,0024.80,0023.52
2023-09-06 05:18:00,SystemResetWarning,0835.6,5.00,000.00,028.2,026.8,000.0,036.6,029.8,25.7,0002.2,0038.27,0024.82,0023.51
2023-09-06 05:19:00,SystemResetWarning,0835.6,5.00,000.00,028.2,027.0,000.0,036.6,029.9,25.6,0002.3,0038.54,0024.80,0023.52
2023-09-06 05:20:00,SystemResetWarning,0835.6,5.00,000.00,028.3,027.1,000.0,036.6,029.9,25.6,0002.3,0037.27,0024.82,0023.54
2023-09-06 05:21:00,SystemResetWarning,0835.6,5.00,000.00,028.3,027.2,000.0,036.7,030.0,25.5,0002.3,0037.25,0024.86,0023.57
2023-09-06 05:22:00,SystemResetWarning,0835.6,5.00,000.00,028.3,027.2,000.0,036.7,030.0,25.5,0002.3,0037.17,0024.86,0023.59
2023-09-06 05:23:00,SystemResetWarning,0835.8,5.01,000.00,028.4,027.3,000.0,036.7,030.0,25.4,0002.4,0036.50,0024.82,0023.56
2023-09-06 05:24:00,SystemResetWarning,0835.6,5.00,000.00,028.4,027.4,000.0,036.7,030.1,25.3,0002.5,0035.73,0024.80,0023.52
2023-09-06 05:25:00,SystemResetWarning,0835.6,4.99,000.00,028.4,027.4,000.0,036.7,030.1,25.3,0002.4,0036.00,0024.73,0023.46
2023-09-06 05:26:00,SystemResetWarning,0835.6,5.00,000.00,028.5,027.5,000.0,036.8,030.1,25.2,0002.5,0035.58,0024.71,0023.45
2023-09-06 05:27:00,SystemResetWarning,0835.6,4.99,000.00,028.5,027.5,000.0,036.8,030.2,25.2,0002.6,0035.57,0024.71,0023.47
2023-09-06 05:28:00,SystemResetWarning,0835.6,4.98,000.00,028.5,026.6,000.0,036.8,030.0,25.2,0002.7,0035.84,0024.74,0023.48
2023-09-06 05:29:00,SystemResetWarning,0835.6,5.01,000.00,028.4,024.9,000.0,036.7,029.5,25.3,0002.7,0035.52,0024.73,0023.48
2023-09-06 05:30:00,SystemResetWarning,0835.6,5.01,000.00,028.2,024.4,000.0,036.6,029.4,25.5,0002.6,0035.42,0024.71,0023.46
2023-09-06 05:31:00,SystemResetWarning,0835.6,5.00,000.00,028.1,024.6,000.0,036.6,029.3,25.6,0002.6,0035.32,0024.70,0023.43
2023-09-06 05:32:00,SystemResetWarning,0835.6,5.00,000.00,028.1,025.0,000.0,036.6,029.4,25.7,0002.7,0035.36,0024.69,0023.38
2023-09-06 05:33:00,SystemResetWarning,0835.6,5.00,000.00,028.1,025.3,000.0,036.6,029.4,25.8,0002.6,0035.43,0024.68,0023.33
2023-09-06 05:34:00,SystemResetWarning,0835.6,5.00,000.00,028.1,025.7,000.0,036.6,029.5,25.7,0002.5,0036.23,0024.70,0023.34
2023-09-06 05:35:00,SystemResetWarning,0835.6,5.01,000.00,028.1,026.0,000.0,036.6,029.6,25.7,0002.5,0036.17,0024.71,0023.36
2023-09-06 05:36:00,SystemResetWarning,0835.6,5.00,000.00,028.1,026.3,000.0,036.6,029.7,25.7,0002.4,0035.68,0024.75,0023.43
2023-09-06 05:37:00,SystemResetWarning,0835.6,5.01,000.00,028.1,026.5,000.0,036.6,029.7,25.7,0002.3,0036.10,0024.81,0023.46
2023-09-06 05:38:00,SystemResetWarning,0835.6,5.00,000.00,028.2,026.7,000.0,036.6,029.8,25.6,0002.2,0036.06,0024.83,0023.49
2023-09-06 05:39:00,SystemResetWarning,0835.7,4.99,000.00,028.2,026.8,000.0,036.6,029.8,25.6,0002.2,0036.43,0024.85,0023.50
2023-09-06 05:40:00,SystemResetWarning,0835.7,5.00,000.00,028.2,026.9,000.0,036.6,029.9,25.5,0002.2,0036.76,0024.85,0023.54
2023-09-06 05:41:00,SystemResetWarning,0835.6,5.00,000.00,028.3,027.1,000.0,036.6,029.9,25.5,0002.3,0036.98,0024.90,0023.58
2023-09-06 05:42:00,SystemResetWarning,0835.6,5.00,000.00,028.3,027.1,000.0,036.6,030.0,25.4,0002.3,0037.29,0024.95,0023.62
2023-09-06 05:43:00,SystemResetWarning,0835.5,5.00,000.00,028.3,027.2,000.0,036.7,030.0,25.4,0002.3,0037.37,0024.96,0023.66
2023-09-06 05:44:00,SystemResetWarning,0835.6,5.00,000.00,028.4,027.3,000.0,036.7,030.0,25.3,0002.3,0037.92,0025.01,0023.70
2023-09-06 05:45:00,SystemResetWarning,0835.6,4.99,000.00,028.4,027.3,000.0,036.7,030.0,25.3,0002.4,0037.46,0025.08,0023.77
2023-09-06 05:46:00,SystemResetWarning,0835.5,4.99,000.00,028.4,027.4,000.0,036.7,030.1,25.2,0002.4,0037.57,0025.09,0023.80
2023-09-06 05:47:00,SystemResetWarning,0835.5,5.00,000.00,028.4,027.4,000.0,036.8,030.1,25.2,0002.4,0038.36,0025.10,0023.84
2023-09-06 05:48:00,SystemResetWarning,0835.6,5.01,000.00,028.5,027.5,000.0,036.8,030.2,25.1,0002.5,0038.16,0025.06,0023.83
2023-09-06 05:49:00,SystemResetWarning,0835.6,5.01,000.00,028.5,027.5,000.0,036.8,030.2,25.1,0002.6,0038.30,0025.04,0023.81
2023-09-06 05:50:00,SystemResetWarning,0835.6,4.99,000.00,028.5,027.2,000.0,036.8,030.1,25.2,0002.4,0037.83,0025.01,0023.82
2023-09-06 05:51:00,SystemResetWarning,0835.6,4.99,000.00,028.5,025.5,000.0,036.7,029.7,25.3,0002.3,0036.90,0025.04,0023.85
2023-09-06 05:52:00,SystemResetWarning,0835.6,5.00,000.00,028.3,024.5,000.0,036.7,029.5,25.7,0002.3,0036.20,0025.05,0023.89
2023-09-06 05:53:00,SystemResetWarning,0835.6,5.01,000.00,028.2,024.5,000.0,036.6,029.4,25.8,0002.2,0036.49,0025.01,0023.90
2023-09-06 05:54:00,SystemResetWarning,0835.6,5.02,000.00,028.1,024.8,000.0,036.6,029.3,25.9,0002.2,0036.88,0025.00,0023.91
2023-09-06 05:55:00,SystemResetWarning,0835.6,5.00,000.00,028.1,025.2,000.0,036.6,029.4,26.0,0002.1,0036.19,0024.96,0023.92
2023-09-06 05:56:00,SystemResetWarning,0835.5,5.00,000.00,028.1,025.5,000.0,036.6,029.5,25.9,0002.0,0035.72,0024.86,0023.88
2023-09-06 05:57:00,SystemResetWarning,0835.4,5.00,000.00,028.1,025.8,000.0,036.6,029.5,25.9,0002.1,0035.43,0024.89,0023.91
2023-09-06 05:58:00,SystemResetWarning,0835.5,5.00,000.00,028.1,026.1,000.0,036.6,029.6,25.9,0002.1,0035.10,0024.90,0023.90
2023-09-06 05:59:00,SystemResetWarning,0835.5,5.00,000.00,028.1,026.3,000.0,036.6,029.6,25.8,0002.0,0035.01,0024.91,0023.90
